This demonstration page uses our WeatherBlox Daily Observations layout. Learn more.

Left ArrowRight Arrow

Hourly Observations for February 19, 2022

Temp ( °F °C ) Dew Point ( °F °C ) Humidity (%) Winds ( mph kmh ) Pressure ( in mb ) Visibility ( mi km ) Precip ( " mm )
12:53 am 00:53 Clear 16 -8.9 13 -10.6 88 88 ENE 3 6 30.02 1017 10 16 0.00 0.00
1:53 am 01:53 Clear 19 -7.2 15 -9.4 84 84 VRB 3 6 29.97 1015 10 16 0.00 0.00
2:37 am 02:37 Clear 31 -0.6 25 -3.9 79 79 SW 23 37 29.93 1013 10 16 0.00 0.00
2:53 am 02:53 Clear 31 -0.6 25 -3.9 79 79 SW 24 39 29.90 1012 10 16 0.00 0.00
3:53 am 03:53 Clear 33 0.6 25 -3.9 72 72 SW 25 41 29.85 1011 10 16 0.00 0.00
4:53 am 04:53 Clear 34 1.1 26 -3.3 73 73 SW 25 41 29.81 1010 10 16 0.00 0.00
5:53 am 05:53 Clear 37 2.8 28 -2.2 70 70 SW 25 41 29.78 1008 10 16 0.00 0.00
6:53 am 06:53 Clear 38 3.3 28 -2.2 68 68 SW 26 43 29.74 1007 10 16 0.00 0.00
7:53 am 07:53 Sunny 39 3.9 28 -2.2 65 65 SW 28 44 29.72 1007 10 16 0.00 0.00
8:53 am 08:53 Sunny 40 4.4 29 -1.7 65 65 SW 26 43 29.70 1006 10 16 0.00 0.00
9:53 am 09:53 Sunny 46 7.8 31 -0.6 56 56 SW 30 48 29.67 1005 10 16 0.00 0.00
10:53 am 10:53 Mostly Cloudy 45 7.2 30 -1.1 56 56 SW 25 41 29.64 1004 10 16 0.00 0.00
11:53 am 11:53 Cloudy 46 7.8 30 -1.1 54 54 SW 28 44 29.62 1003 10 16 0.00 0.00
12:53 pm 12:53 Cloudy 46 7.8 29 -1.7 51 51 SW 29 46 29.59 1002 10 16 0.00 0.00
1:53 pm 13:53 Cloudy 46 7.8 29 -1.7 51 51 SW 20 31 29.55 1001 10 16 0.00 0.00
2:53 pm 14:53 Cloudy 48 8.9 29 -1.7 48 48 SW 16 26 29.50 999 10 16 0.00 0.00
3:53 pm 15:53 Cloudy 48 8.9 29 -1.7 48 48 SW 14 22 29.47 998 10 16 0.00 0.00
4:53 pm 16:53 Cloudy 47 8.3 29 -1.7 50 50 W 20 31 29.48 998 10 16 0.00 0.00
5:48 pm 17:48 Cloudy 46 8 27 -3 46 46 WSW 16 26 29.45 997 10 16 0.00 0.00
5:53 pm 17:53 Cloudy 47 8.3 26 -3.3 44 44 WSW 16 26 29.46 998 10 16 0.00 0.00
6:53 pm 18:53 Cloudy 47 8.3 26 -3.3 44 44 W 37 59 29.46 998 10 16 0.00 0.00
7:53 pm 19:53 Partly Cloudy 45 7.2 27 -2.8 49 49 W 28 44 29.51 999 10 16 0.00 0.00
8:53 pm 20:53 Cloudy 41 5 28 -2.2 60 60 W 24 39 29.54 1000 10 16 0.00 0.00
9:53 pm 21:53 Mostly Clear 38 3.3 29 -1.7 70 70 W 15 24 29.58 1002 10 16 0.00 0.00
10:53 pm 22:53 Mostly Cloudy 36 2.2 29 -1.7 76 76 SW 8 13 29.61 1003 10 16 0.00 0.00
11:53 pm 23:53 Mostly Clear 34 1.1 29 -1.7 82 82 SW 10 17 29.63 1003 10 16 0.00 0.00

Powered by AerisWeather